SCP
0 0 0 0 0 0 0 0 0 0 0 0 0 0 0 0 0 0 0 0 0 0
0 0 0 0 0 0 0 0 0 0 0 0 0 0 0 0 0 0 0 0 0 0
0 0 0 0 0 0 0 0 0 0 0 0 0 0 0 0 0 0 0 0 0 0
0 0 0 0 0 0 0 0 0 0 0 0 0 0 0 0 0 0 0 0 0 0
0 0 0 0 0 0 0 0 0 0 0 0 0 0 0 0 0 0 0 0 0 0
0 0 0 0 0 0 0 0 0 0 0 0 0 0 0 0 0 0 0 0 0 0
0 0 0 0 0 0 0 0 0 0 0 0 0 0 0 0 0 0 0 0 0 0
0 0 0 0 0 0 0 0 0 0 0 0 0 0 0 0 0 0 0 0 0 0
0 0 0 0 0 0 0 0 0 0 0 0 0 0 0 0 0 0 0 0 0 0
0 0 0 0 0 0 0 0 0 0 0 0 0 0 0 0 0 0 0 0 0 0
0 0 0 0 0 0 0 0 0 0 0 0 0 0 0 0 0 0 0 0 0 0
0 0 0 0 0 0 0 0 0 0 0 0 0 0 0 0 0 0 0 0 0 0
0 0 0 0 0 0 0 0 0 0 0 0 0 0 0 0 0 0 0 0 0 0
0 0 0 0 0 0 0 0 0 0 0 0 0 0 0 0 0 0 0 0 0 0
Wind_Speed_500mb
15 8 6 2 2 6 9 13 15 17 17 17 19 20 21 22 25 26 27 28 30 32
12 10 6 3 2 6 10 13 15 16 16 18 19 20 22 23 25 27 29 32 34 35
14 10 5 3 4 9 13 16 17 18 18 19 20 20 22 24 26 29 33 36 39 40
12 8 4 4 7 12 15 18 19 20 20 21 22 23 24 26 30 33 37 40 44 46
10 8 5 6 9 13 16 19 21 23 23 24 25 26 28 29 31 36 41 46 48 49
10 9 8 9 12 16 19 21 23 24 26 28 29 30 31 33 36 40 45 49 51 50
14 13 13 14 15 18 21 23 26 27 29 31 32 34 35 36 40 44 47 49 51 50
18 16 16 17 19 21 25 29 30 32 33 35 37 39 38 38 42 46 48 49 50 49
20 19 19 21 23 26 30 33 34 35 35 37 39 40 41 43 45 45 47 50 52 53
21 21 24 25 27 29 32 35 35 36 38 39 42 45 43 43 44 47 51 53 53 52
24 26 27 28 29 31 34 37 39 41 41 42 43 45 44 45 46 49 51 51 51 50
28 29 29 30 30 34 38 39 40 41 43 46 47 49 46 48 47 49 51 51 49 49
31 32 32 33 35 36 38 40 44 46 46 47 48 48 47 47 49 51 51 50 47 46
35 34 33 32 35 39 42 44 45 46 47 48 48 47 46 46 48 50 52 52 51 51
Wind_Direction_500mb
184 171 200 219 357 332 336 338 345 341 341 344 350 354 357 356 358 355 352 351 348 343
177 191 185 222 302 326 334 336 346 336 334 336 341 344 348 346 347 347 346 344 341 337
192 186 195 249 322 331 341 338 340 330 329 326 329 332 334 334 336 338 338 335 333 332
186 192 213 282 330 335 340 336 332 323 318 318 320 323 323 326 328 330 329 329 330 329
196 213 239 290 326 326 330 328 321 316 314 310 311 313 314 318 320 322 323 324 324 323
215 240 266 292 308 316 319 321 316 311 307 305 307 307 307 310 317 320 319 319 321 320
237 252 270 287 301 309 314 317 314 310 306 304 300 301 304 308 310 311 314 318 317 314
246 256 269 284 294 306 315 318 314 308 306 302 300 299 299 303 306 309 312 315 313 312
254 264 276 285 297 309 312 311 307 302 298 296 295 296 301 302 302 308 313 313 313 310
265 276 284 291 298 299 300 300 299 299 299 298 298 297 296 298 306 312 311 310 310 310
277 279 281 283 285 291 297 302 302 299 296 293 295 296 301 303 305 305 307 307 308 306
275 276 280 283 286 294 297 297 295 297 299 300 298 298 300 300 302 302 305 306 306 306
280 282 282 277 278 286 297 300 301 299 297 296 298 297 299 299 300 301 305 307 308 312
273 271 271 277 290 297 298 296 295 297 298 298 298 298 298 298 300 302 303 305 308 307
Wind_Speed_850mb
15 8 6 2 2 6 9 13 15 17 17 17 19 20 21 22 25 26 27 28 30 32
12 10 6 3 2 6 10 13 15 16 16 18 19 20 22 23 25 27 29 32 34 35
14 10 5 3 4 9 13 16 17 18 18 19 20 20 22 24 26 29 33 36 39 40
12 8 4 4 7 12 15 18 19 20 20 21 22 23 24 26 30 33 37 40 44 46
10 8 5 6 9 13 16 19 21 23 23 24 25 26 28 29 31 36 41 46 48 49
10 9 8 9 12 16 19 21 23 24 26 28 29 30 31 33 36 40 45 49 51 50
14 13 13 14 15 18 21 23 26 27 29 31 32 34 35 36 40 44 47 49 51 50
18 16 16 17 19 21 25 29 30 32 33 35 37 39 38 38 42 46 48 49 50 49
20 19 19 21 23 26 30 33 34 35 35 37 39 40 41 43 45 45 47 50 52 53
21 21 24 25 27 29 32 35 35 36 38 39 42 45 43 43 44 47 51 53 53 52
24 26 27 28 29 31 34 37 39 41 41 42 43 45 44 45 46 49 51 51 51 50
28 29 29 30 30 34 38 39 40 41 43 46 47 49 46 48 47 49 51 51 49 49
31 32 32 33 35 36 38 40 44 46 46 47 48 48 47 47 49 51 51 50 47 46
35 34 33 32 35 39 42 44 45 46 47 48 48 47 46 46 48 50 52 52 51 51
Wind_Direction_850mb
184 171 200 219 357 332 336 338 345 341 341 344 350 354 357 356 358 355 352 351 348 343
177 191 185 222 302 326 334 336 346 336 334 336 341 344 348 346 347 347 346 344 341 337
192 186 195 249 322 331 341 338 340 330 329 326 329 332 334 334 336 338 338 335 333 332
186 192 213 282 330 335 340 336 332 323 318 318 320 323 323 326 328 330 329 329 330 329
196 213 239 290 326 326 330 328 321 316 314 310 311 313 314 318 320 322 323 324 324 323
215 240 266 292 308 316 319 321 316 311 307 305 307 307 307 310 317 320 319 319 321 320
237 252 270 287 301 309 314 317 314 310 306 304 300 301 304 308 310 311 314 318 317 314
246 256 269 284 294 306 315 318 314 308 306 302 300 299 299 303 306 309 312 315 313 312
254 264 276 285 297 309 312 311 307 302 298 296 295 296 301 302 302 308 313 313 313 310
265 276 284 291 298 299 300 300 299 299 299 298 298 297 296 298 306 312 311 310 310 310
277 279 281 283 285 291 297 302 302 299 296 293 295 296 301 303 305 305 307 307 308 306
275 276 280 283 286 294 297 297 295 297 299 300 298 298 300 300 302 302 305 306 306 306
280 282 282 277 278 286 297 300 301 299 297 296 298 297 299 299 300 301 305 307 308 312
273 271 271 277 290 297 298 296 295 297 298 298 298 298 298 298 300 302 303 305 308 307